User: anonymous   Login
Location: Radomski Observatory
(40.2854°N, 79.5145°W)
Time: 10:14:57
(UTC-05:00)
Language:

Cosmos 1072 Rocket - Orbit

View from above orbital plane
View from above orbital plane
View from above satellite
View from above satellite

Ground track
Ground track

The orbit data is extracted from the following two-line orbital elements,

1 11239U 79003B   16040.65537397  .00000014  00000-0 -10848-5 0  9993
2 11239  82.9368  94.9006 0039993 333.2422 137.2492 13.75794821859999
Epoch (UTC): 09 February 2016 15:43:44
Eccentricity: 0.0039993
inclination: 82.9368°
perigee height: 949 km
apogee height: 1008 km
right ascension of ascending node: 94.9006°
argument of perigee: 333.2422°
revolutions per day: 13.75794821
mean anomaly at epoch: 137.2492°
orbit number at epoch: 85999

The dashed part of the orbit path shows where the satellite is in the earth's shadow,  

DLR